Location: DARK SKY Beskydy - Park tmavé oblohy, www.darkskybeskydy.cz
(49.4926°N, 18.5016°E)
Time: 03:19:46
(UTC+02:00)

A-11 Canister half - Pass Details

Date: 26 February 2024
Orbit: 1513 x 1686 km, 47.2° (Epoch: 24 April)

Event Time Altitude Azimuth Distance (km) Brightness Sun altitude
Rises 09:22:04 0° 286° (WNW) 4,851 11.1 22.3°
Reaches altitude 10° 09:27:06 10° 265° (W) 3,823 10.8 22.9°
Maximum altitude 09:31:45 15° 236° (SW) 3,423 10.9 23.4°
Drops below altitude 10° 09:36:21 10° 206° (SSW) 3,747 11.4 23.9°
Sets 09:41:15 0° 184° (S) 4,693 12.2 24.4°
